Desroches Airport

Jump to: basic info | weather | runways | comments

Related pages: nearby airports | nearby navaids | notams | map

Basic information (top)

Codes: DES FSDR
Location: lon -5.696700, lat 53.655800, elev 10 ft / 3 m msl
Status: small_airport
Scheduled airline service: no
Links: Wikipedia Mobile

Weather (top)

Current conditions for Seychelles International Airport 127nm (236km) ENE (rec'd 2015/01/25 14:00Z):

FSIA 251400Z 36014KT 9999 FEW008 BKN015 26/24 Q1012 NOSIG

Airport forecast for Seychelles International Airport 127nm (236km) ENE (rec'd 2015/01/25 12:00Z):

TAF FSIA 250948Z 2512/2612 34015KT 9999 SCT017 
      TEMPO 2512/2524 8000 -SHRA FEW015CB BKN016 PROB40 
      TEMPO 2518/2521 5000 SHRA FEW010 FEW014CB BKN015

Runways (top)

12/30: 4,531 x 33 ft (1,381 x 10 m) — paved — not lighted

Latest comments (top)

No comments yet for Desroches Airport

More... (top)

See also NOTAMs and nearby airports and navaids, or visit the Desroches Airport page at the main OurAirports website..